Location: Carrizal
(9.8472°N, 67.3428°W)
Time: 03:16:15
(UTC+00:00)

Tiangong - Visible Passes

Search period start: 24 June 2024 00:00
Search period end: 04 July 2024 00:00
Orbit: 377 x 384 km, 41.5° (Epoch: 23 June)

Date Brightness Start Highest point End Pass type
(mag) Time Alt. Az. Time Alt. Az. Time Alt. Az.
24 Jun 0.6 00:49:35 10° WNW 00:50:41 18° W 00:50:41 18° W visible
24 Jun -2.3 23:48:16 10° NW 23:51:25 89° NE 23:52:50 29° SE visible
26 Jun 0.6 00:25:32 10° WSW 00:26:55 12° SW 00:27:08 12° SW visible
26 Jun -0.7 23:22:59 10° WNW 23:25:50 32° SW 23:28:41 10° SSE visible
02 Jul 0.0 09:03:52 14° S 09:05:23 19° SE 09:07:43 10° E visible
03 Jul -1.8 09:37:40 12° WSW 09:40:22 49° NW 09:43:23 10° NE visible
